This demonstration page uses our WeatherBlox Daily Observations layout. Learn more.

Left ArrowRight Arrow

44.8408, -93.29828

Hourly Observations for March 1, 2022

Temp ( °F °C ) Dew Point ( °F °C ) Humidity (%) Winds ( mph kmh ) Pressure ( in mb ) Visibility ( mi km ) Precip ( " mm )
12:53 am 00:53 Mostly Cloudy 35 1.7 28 -2.2 76 76 NW 12 19 29.93 1014 10 16 0.00 0.00
1:53 am 01:53 Cloudy 34 1.1 28 -2.2 79 79 NNW 7 11 29.93 1014 10 16 0.00 0.00
2:53 am 02:53 Cloudy 34 1.1 27 -2.8 76 76 NW 12 19 29.95 1014 10 16 0.00 0.00
3:53 am 03:53 Cloudy 33 0.6 24 -4.4 70 70 NNW 7 11 29.95 1014 10 16 0.00 0.00
4:53 am 04:53 Cloudy 32 0 23 -5 69 69 N 7 11 29.96 1014 10 16 0.00 0.00
5:53 am 05:53 Cloudy 32 0 21 -6.1 64 64 NNE 9 15 29.98 1015 10 16 0.00 0.00
6:53 am 06:53 Cloudy 31 -0.6 20 -6.7 64 64 NNE 8 13 30.00 1016 10 16 0.00 0.00
7:53 am 07:53 Mostly Cloudy 31 -0.6 20 -6.7 64 64 N 8 13 30.03 1017 10 16 0.00 0.00
8:53 am 08:53 Mostly Cloudy 32 0 20 -6.7 61 61 NNE 8 13 30.05 1018 10 16 0.00 0.00
9:53 am 09:53 Mostly Cloudy 34 1.1 19 -7.2 54 54 VRB 5 7 30.06 1018 10 16 0.00 0.00
10:53 am 10:53 Mostly Cloudy 34 1.1 20 -6.7 56 56 NNE 6 9 30.08 1019 10 16 0.00 0.00
11:53 am 11:53 Mostly Cloudy 35 1.7 20 -6.7 54 54 NE 7 11 30.07 1018 10 16 0.00 0.00
12:53 pm 12:53 Mostly Cloudy 37 2.8 21 -6.1 52 52 VRB 3 6 30.08 1019 10 16 0.00 0.00
1:53 pm 13:53 Mostly Cloudy 39 3.9 22 -5.6 50 50 NW 5 7 30.08 1019 10 16 0.00 0.00
2:53 pm 14:53 Partly Cloudy 39 3.9 22 -5.6 50 50 VRB 3 6 30.09 1019 10 16 0.00 0.00
3:53 pm 15:53 Mostly Sunny 40 4.4 22 -5.6 49 49 N 6 9 30.09 1019 10 16 0.00 0.00
4:53 pm 16:53 Mostly Sunny 40 4.4 22 -5.6 49 49 NW 3 6 30.10 1019 10 16 0.00 0.00
5:53 pm 17:53 Mostly Sunny 37 2.8 23 -5 57 57 NNW 5 7 30.11 1020 10 16 0.00 0.00
6:53 pm 18:53 Mostly Clear 35 1.7 22 -5.6 59 59 NW 5 7 30.12 1020 10 16 0.00 0.00
7:53 pm 19:53 Mostly Clear 34 1.1 22 -5.6 61 61 NW 3 6 30.13 1020 10 16 0.00 0.00
8:53 pm 20:53 Mostly Cloudy 34 1.1 22 -5.6 61 61 NNW 5 7 30.13 1020 10 16 0.00 0.00
9:53 pm 21:53 Mostly Cloudy 33 0.6 23 -5 66 66 WNW 3 6 30.14 1021 10 16 0.00 0.00
10:53 pm 22:53 Mostly Cloudy 32 0 22 -5.6 66 66 Calm 30.14 1021 10 16 0.00 0.00
11:53 pm 23:53 Partly Cloudy 30 -1.1 21 -6.1 69 69 Calm 30.11 1020 9 14 0.00 0.00

Powered by AerisWeather